User: anonymous   Login
Location: *
(42.0175°N, 9.4056°E)
Time: 04:41:18
(UTC+00:00)
Language:

Cosmos 372 Rocket - Orbit

View from above orbital plane
View from above orbital plane
View from above satellite
View from above satellite

Ground track
Ground track

The orbit data is extracted from the following two-line orbital elements,

1  4589U 70086B   19296.82447678  .00000046  00000-0  22151-4 0  9995
2  4589  74.0601 169.8827 0020652 171.9661 188.1830 14.41558259571010
Epoch (UTC): 23 October 2019 19:47:14
Eccentricity: 0.0020652
inclination: 74.0601°
perigee height: 738 km
apogee height: 768 km
right ascension of ascending node: 169.8827°
argument of perigee: 171.9661°
revolutions per day: 14.41558259
mean anomaly at epoch: 188.1830°
orbit number at epoch: 57101

The dashed part of the orbit path shows where the satellite is in the earth's shadow,  

DLR